Date String (YYYY-MM-DD hh:mm:ss) UTC,Instrument flags,absolute air pressure of the measurement (hPa),sample flow rate (lpm),inlet stack bypass flow (lpm),air temperature of the measurement (°C),ambient temperature measured by the external sensor (°C),aerosol sample conditioner tube jacket temperature (°C),OPC LED temperature (°C),internal box temperature (°C),relative humidity of the measurement (%),span deviation,mass concentration of particles derived from Lorenz-Mie calculation of OPC scattering (μg/m³),mass concentration of particles derived from Lorenz-Mie calculation of OPC scattering (μg/m³),mass concentration of particles derived from Lorenz-Mie calculation of OPC scattering (μg/m³)
DateTimeUTC,F1_M11,P_M11,Q1_M11,Q2_M11,T1_M11,T2_M11,T3_M11,T4_M11,T5_M11,U1_M11,ZSPAN_M11,X2_M11,X0_M11,X1_M11
2023-07-01 20:00:00,SystemResetWarning,0834.1,4.99,000.00,028.7,026.9,000.0,037.1,030.3,25.1,0000.0,0004.57,0008.58,0004.14
2023-07-01 20:01:00,SystemResetWarning,0834.1,5.01,000.00,028.7,027.2,000.0,037.1,030.4,25.5,0000.0,0004.54,0008.37,0004.13
2023-07-01 20:02:00,SystemResetWarning,0834.1,5.01,000.00,028.8,027.4,000.0,037.2,030.5,25.7,0000.0,0004.58,0008.34,0004.13
2023-07-01 20:03:00,SystemResetWarning,0834.1,5.01,000.00,028.8,027.6,000.0,037.2,030.6,24.9,0000.0,0004.59,0008.52,0004.12
2023-07-01 20:04:00,SystemResetWarning,0834.1,4.99,000.00,028.9,027.8,000.0,037.2,030.6,25.5,0000.0,0004.61,0008.43,0004.12
2023-07-01 20:05:00,SystemResetWarning,0834.1,4.98,000.00,028.9,027.4,000.0,037.2,030.6,25.4,0000.0,0004.62,0009.00,0004.12
2023-07-01 20:06:00,SystemResetWarning,0834.1,5.00,000.00,028.9,025.6,000.0,037.1,030.4,24.9,0000.0,0004.62,0009.41,0004.11
2023-07-01 20:07:00,SystemResetWarning,0834.1,5.01,000.00,028.8,024.7,000.0,037.0,030.2,24.7,0000.0,0004.61,0009.84,0004.11
2023-07-01 20:08:00,SystemResetWarning,0834.0,5.01,000.00,028.7,024.9,000.0,037.0,030.1,25.4,0000.0,0004.61,0009.83,0004.10
2023-07-01 20:09:00,SystemResetWarning,0834.0,4.99,000.00,028.7,025.3,000.0,037.0,030.0,25.3,0000.0,0004.63,0009.88,0004.10
2023-07-01 20:10:00,SystemResetWarning,0834.0,5.00,000.00,028.6,025.7,000.0,037.1,030.1,25.4,0000.0,0004.64,0010.00,0004.09
2023-07-01 20:11:00,SystemResetWarning,0834.0,5.01,000.00,028.7,026.2,000.0,037.1,030.2,25.5,0000.0,0004.63,0010.02,0004.09
2023-07-01 20:12:00,SystemResetWarning,0834.0,4.99,000.00,028.7,026.6,000.0,037.1,030.3,25.6,0000.0,0004.62,0010.76,0004.10
2023-07-01 20:13:00,SystemResetWarning,0834.0,5.00,000.00,028.7,026.9,000.0,037.1,030.4,25.8,0000.0,0004.59,0010.13,0004.10
2023-07-01 20:14:00,SystemResetWarning,0833.9,5.01,000.00,028.7,027.2,000.0,037.2,030.4,27.0,0000.0,0004.57,0009.83,0004.12
2023-07-01 20:15:00,SystemResetWarning,0834.0,5.00,000.00,028.8,027.4,000.0,037.2,030.5,25.8,0000.0,0004.57,0010.17,0004.12
2023-07-01 20:16:00,SystemResetWarning,0834.0,5.01,000.00,028.8,027.6,000.0,037.2,030.6,24.7,0000.0,0004.61,0010.03,0004.11
2023-07-01 20:17:00,SystemResetWarning,0834.0,5.01,000.00,028.9,027.6,000.0,037.2,030.6,25.0,0000.0,0004.62,0009.80,0004.13
2023-07-01 20:18:00,SystemResetWarning,0833.9,4.98,000.00,028.9,026.1,000.0,037.1,030.5,25.7,0000.0,0004.63,0009.80,0004.12
2023-07-01 20:19:00,SystemResetWarning,0834.0,5.01,000.00,028.8,025.5,000.0,037.0,030.4,25.0,0000.0,0004.61,0009.88,0004.12
2023-07-01 20:20:00,SystemResetWarning,0833.9,5.02,000.00,028.8,025.7,000.0,037.0,030.2,24.2,0000.0,0004.60,0009.98,0004.11
2023-07-01 20:21:00,SystemResetWarning,0833.9,4.99,000.00,028.7,026.1,000.0,037.1,030.2,24.3,0000.0,0004.59,0009.85,0004.12
2023-07-01 20:22:00,SystemResetWarning,0833.9,5.00,000.00,028.8,026.4,000.0,037.1,030.3,24.5,0000.0,0004.57,0009.69,0004.12
2023-07-01 20:23:00,SystemResetWarning,0833.9,5.00,000.00,028.8,026.8,000.0,037.2,030.4,24.5,0000.0,0004.60,0009.09,0004.13
2023-07-01 20:24:00,SystemResetWarning,0833.8,5.00,000.00,028.8,027.1,000.0,037.2,030.5,24.6,0000.0,0004.61,0009.26,0004.13
2023-07-01 20:25:00,SystemResetWarning,0833.9,5.01,000.00,028.9,027.4,000.0,037.2,030.6,24.5,0000.0,0004.63,0009.40,0004.14
2023-07-01 20:26:00,SystemResetWarning,0833.9,5.00,000.00,028.9,027.6,000.0,037.3,030.6,25.0,0000.0,0004.62,0009.14,0004.14
2023-07-01 20:27:00,SystemResetWarning,0833.9,4.99,000.00,028.9,027.1,000.0,037.2,030.6,25.8,0000.0,0004.58,0008.71,0004.15
2023-07-01 20:28:00,SystemResetWarning,0833.8,5.00,000.00,028.9,025.7,000.0,037.1,030.4,25.5,0000.0,0004.58,0008.54,0004.14
2023-07-01 20:29:00,SystemResetWarning,0833.9,5.02,000.00,028.8,025.6,000.0,037.1,030.3,25.5,0000.0,0004.57,0008.24,0004.14
2023-07-01 20:30:00,SystemResetWarning,0833.9,5.00,000.00,028.8,025.9,000.0,037.1,030.2,25.3,0000.0,0004.60,0008.49,0004.15
2023-07-01 20:31:00,SystemResetWarning,0833.9,4.99,000.00,028.8,026.2,000.0,037.2,030.3,24.8,0000.0,0004.62,0008.48,0004.17
2023-07-01 20:32:00,SystemResetWarning,0833.8,5.00,000.00,028.8,026.6,000.0,037.2,030.4,25.9,0000.0,0004.64,0008.57,0004.17
2023-07-01 20:33:00,SystemResetWarning,0833.9,5.00,000.00,028.8,026.9,000.0,037.2,030.4,24.3,0000.0,0004.67,0008.71,0004.16
2023-07-01 20:34:00,SystemResetWarning,0833.9,5.02,000.00,028.9,027.2,000.0,037.2,030.5,24.8,0000.0,0004.66,0008.56,0004.15
2023-07-01 20:35:00,SystemResetWarning,0833.8,5.00,000.00,028.9,027.5,000.0,037.3,030.6,23.8,0000.0,0004.63,0008.38,0004.15
2023-07-01 20:36:00,SystemResetWarning,0833.9,5.00,000.00,028.9,027.6,000.0,037.3,030.7,24.3,0000.0,0004.60,0008.85,0004.15
2023-07-01 20:37:00,SystemResetWarning,0833.8,4.98,000.00,029.0,026.4,000.0,037.2,030.5,24.8,0000.0,0004.59,0009.03,0004.16
2023-07-01 20:38:00,SystemResetWarning,0833.7,5.01,000.00,028.9,024.8,000.0,037.1,030.3,24.2,0000.0,0004.59,0009.06,0004.16
2023-07-01 20:39:00,SystemResetWarning,0833.8,5.01,000.00,028.8,024.7,000.0,037.0,030.2,24.4,0000.0,0004.58,0008.97,0004.17
2023-07-01 20:40:00,SystemResetWarning,0833.8,5.00,000.00,028.7,025.1,000.0,037.1,030.0,24.9,0000.0,0004.58,0008.91,0004.19
2023-07-01 20:41:00,SystemResetWarning,0833.8,4.99,000.00,028.7,025.5,000.0,037.1,030.1,24.3,0000.0,0004.57,0008.61,0004.18
2023-07-01 20:42:00,SystemResetWarning,0833.8,5.00,000.00,028.7,026.0,000.0,037.1,030.2,25.4,0000.0,0004.58,0008.58,0004.18
2023-07-01 20:43:00,SystemResetWarning,0833.8,5.00,000.00,028.7,026.4,000.0,037.1,030.3,26.2,0000.0,0004.57,0008.51,0004.19
2023-07-01 20:44:00,SystemResetWarning,0833.8,5.01,000.00,028.7,026.8,000.0,037.2,030.3,26.6,0000.0,0004.55,0008.44,0004.19
2023-07-01 20:45:00,SystemResetWarning,0833.8,5.00,000.00,028.8,027.1,000.0,037.2,030.4,26.3,0000.0,0004.55,0008.85,0004.20
2023-07-01 20:46:00,SystemResetWarning,0833.8,5.00,000.00,028.8,027.3,000.0,037.2,030.5,25.7,0000.0,0004.57,0009.37,0004.21
2023-07-01 20:47:00,SystemResetWarning,0833.8,5.00,000.00,028.8,027.6,000.0,037.2,030.6,24.7,0000.0,0004.61,0009.06,0004.21
2023-07-01 20:48:00,SystemResetWarning,0833.8,5.00,000.00,028.9,027.5,000.0,037.2,030.7,24.8,0000.0,0004.63,0008.61,0004.22
2023-07-01 20:49:00,SystemResetWarning,0833.8,4.99,000.00,028.9,026.0,000.0,037.1,030.5,24.7,0000.0,0004.63,0008.68,0004.22
2023-07-01 20:50:00,SystemResetWarning,0833.8,5.01,000.00,028.9,025.5,000.0,037.0,030.4,24.1,0000.0,0004.63,0009.31,0004.22
2023-07-01 20:51:00,SystemResetWarning,0833.7,5.01,000.00,028.8,025.8,000.0,037.1,030.2,24.8,0000.0,0004.65,0009.33,0004.22
2023-07-01 20:52:00,SystemResetWarning,0833.7,5.00,000.00,028.8,026.1,000.0,037.1,030.3,24.4,0000.0,0004.66,0010.08,0004.23
2023-07-01 20:53:00,SystemResetWarning,0833.7,4.99,000.00,028.8,026.5,000.0,037.2,030.3,25.5,0000.0,0004.65,0010.37,0004.24
2023-07-01 20:54:00,SystemResetWarning,0833.7,4.99,000.00,028.8,026.9,000.0,037.2,030.4,25.3,0000.0,0004.64,0010.51,0004.24
2023-07-01 20:55:00,SystemResetWarning,0833.8,5.00,000.00,028.9,027.2,000.0,037.2,030.5,26.6,0000.0,0004.66,0010.96,0004.25
2023-07-01 20:56:00,SystemResetWarning,0833.8,5.01,000.00,028.9,027.4,000.0,037.3,030.6,24.8,0000.0,0004.66,0010.76,0004.25
2023-07-01 20:57:00,SystemResetWarning,0833.8,5.00,000.00,028.9,027.4,000.0,037.3,030.7,24.0,0000.0,0004.65,0010.09,0004.25
2023-07-01 20:58:00,SystemResetWarning,0833.8,4.98,000.00,028.9,025.9,000.0,037.2,030.5,24.0,0000.0,0004.60,0009.93,0004.25
2023-07-01 20:59:00,SystemResetWarning,0833.8,5.02,000.00,028.9,024.6,000.0,037.0,030.3,23.6,0000.0,0004.61,0009.91,0004.26
